FENGYUN 1C DEB, 29946

Orbit data source: Space-Track

FENGYUN 1C DEB, 29946 is space debris in SSO originally from a launch on Mon, 10 May 1999 UTC launched from the Taiyaun Space Center, China (TSC). Fengyun 1C debris stems from the Chinese weather satellite Fengyun-1C, which was intentionally destroyed by a Chinese anti-satellite missile in 2007. This event dramatically increased the amount of space debris, with thousands of trackable fragments posing hazards to satellites and human spaceflight. The Fengyun 1C debris cloud has become a focal point in discussions about space sustainability and the need for international regulations to prevent the creation of new debris.

Loading next visibility...
Identifier
29946, 1999-025JU
Orbit
SSO
Country
Flag of CNCN / PRC
Related business
Manufacturer
Unknown
Mission
Spacecraft
Bus & Motor
Unknown
Mass
Unknown
Launch date (UTC)
1999-05-10 (27 years ago)
Launch vehicle
Unknown
Launch site
Taiyaun Space Center, China (TSC)
Object type
Payload
Rocket body
Debris
Shape & HBR
Unknown shape, 0.2 m
Radar Cross Section
Medium (>0.1 m² and <1 m²)

Expand to show TLE details & history
Last TLE update: 5 hours ago

TLE from 5 hours ago
0 FENGYUN 1C DEB
1 29946U 99025JU  26164.77990956  .00000229  00000-0  15430-3 0  9995
2 29946  98.7906 157.2943 0080279 185.6501 347.4342 14.08410593996235
Epoch: 2026-06-13T18:43Z
TLE epoch observation values (Epoch: 2026-06-13T18:43:04.185Z)
Latitude
6.96084°
Longitude
155.51283°
Altitude
810.337 km
Speed
7.478 km/s
True Right ascension
22h 33m 28s
True Declination
6° 55' 12"
Sunlit
Object was in daylight at epoch
Visualization orbit readout
Latitude
Unknown
Longitude
Unknown
Altitude
Unknown
Speed
Unknown
Apparent Right ascension
Unknown
Apparent Declination
Unknown
Sunlit
N/A
Visualization observer readout
Local Sidereal Time
10:12:55
Azimuth
Unknown
Elevation
Unknown
Doppler factor
Unknown
Orbital elements
Apogee altitude
920.117 km
Perigee altitude
803.87 km
Semi-major axis
7,240.13 km
Eccentricity
0.00803
Inclination
98.7906°
RAAN
157.2943°
Arg. of periapsis
185.6501°
True anomaly
347.23208°
Mean anomaly
347.4342°
Eccentric anomaly
347.33334°
Mean motion
3.52309 °/min
Orbital period
102.18 mins
BSTAR
0.0001543
Loading maneuver chart data...
Computing Atmospheric mass density...

Documentation

Showing up to 5 results
|